Location: Chabanne
(46.1598°N, 1.4789°E)
Time: 01:35:02
(UTC+00:00)

Daily predictions for brighter satellites

Satellite Brightness Start Highest point End
(mag) Time Altitude Azimuth Time Altitude Azimuth Time Altitude Azimuth
Cosmos 1464 Rocket 4.1 00:08:47 58° ESE 00:09:26 61° E 00:15:34 10° NNE
Cosmos 2333 4.1 00:04:17 10° NNW 00:10:07 85° WSW 00:10:14 84° SSW
Cosmos 2219 Rocket 2.3 00:04:57 10° NNW 00:10:38 70° ENE 00:11:13 64° E
Lacrosse 4 Rocket 2.4 00:13:01 44° NE 00:13:01 44° NE 00:15:56 10° NNE
Cosmos 2233 Rocket 4.3 00:10:46 49° WSW 00:11:49 54° WNW 00:18:02 10° N
Cosmos 836 Rocket 4.5 00:06:37 10° NNW 00:11:32 79° NNW 00:11:32 79° NNW
Cosmos 1782 Rocket 4.3 00:12:54 48° NE 00:12:54 48° NE 00:16:13 10° NNE
Cosmos 1354 Rocket 4.4 00:16:38 53° E 00:16:38 53° E 00:21:27 10° NNE
Cosmos 2322 Rocket 3.8 00:14:06 10° NW 00:17:43 22° W 00:17:43 22° W
Cosmos 968 Rocket 3.4 00:19:13 79° N 00:19:13 79° N 00:24:03 10° NNE
Cosmos 1908 Rocket 4.3 00:21:10 49° NNW 00:21:10 49° NNW 00:24:42 10° N
COSMOS 2428 2.6 00:23:00 10° NNW 00:28:47 84° ENE 00:29:11 77° SE
SL-16 R/B 3.8 00:28:37 20° ESE 00:32:04 35° ENE 00:37:39 10° N
CENTAUR R/B 4.1 00:27:24 11° W 00:32:59 34° NNW 00:39:38 10° NNE
Nadezhda 4 Rocket 4.1 00:27:50 10° N 00:34:08 69° E 00:35:18 57° SE
Cosmos 2360 Rocket 3.4 00:29:21 10° NW 00:33:24 29° W 00:33:24 29° W
Cosmos 2034 Rocket 4.0 00:35:41 61° SE 00:36:33 70° E 00:42:49 10° NNE
CZ-2D R/B 3.7 00:32:45 10° NE 00:37:11 24° E 00:38:05 23° ESE
Cosmos 1513 Rocket 4.4 00:37:32 67° SSW 00:38:26 82° W 00:44:54 10° N
Cosmos 1072 Rocket 4.3 00:39:08 68° SW 00:39:49 76° W 00:45:58 10° N
Okean 2 Rocket 3.8 00:41:46 48° ENE 00:41:46 48° ENE 00:45:36 10° NNE
Meteor 2-9 Rocket 4.0 00:41:29 77° WSW 00:41:44 79° WNW 00:47:25 10° N
GEOS 3 Rocket 3.8 00:37:32 10° NE 00:42:46 60° ESE 00:42:46 60° ESE
Cosmos 1975 4.0 00:45:31 38° NNW 00:45:31 38° NNW 00:48:23 10° N
Cosmos 2297 Rocket 3.4 00:45:36 29° ESE 00:45:57 29° ESE 00:50:46 10° NE
Cosmos 2219 4.1 00:45:50 34° ESE 00:46:05 34° ESE 00:51:07 10° NE
Cosmos 1092 Rocket 4.5 00:40:04 10° N 00:46:12 54° ENE 00:48:01 41° SE
Cosmos 1975 Rocket 3.7 00:42:03 10° NNW 00:45:36 49° NW 00:45:36 49° NW
Cosmos 1980 4.3 00:42:12 10° NNW 00:47:46 53° ENE 00:49:51 35° ESE
Sich 1 Rocket 3.9 00:48:43 63° N 00:48:43 63° N 00:52:27 10° N
Cosmos 2333 Rocket 2.4 00:42:49 10° NNW 00:48:11 57° W 00:48:11 57° W
PSLV R/B 4.1 00:44:09 10° N 00:48:26 58° NW 00:48:26 58° NW
Helios 1B rocket 3.1 00:45:36 10° NNE 00:48:49 54° N 00:48:49 54° N
Cosmos 44 Rocket 3.3 00:50:09 10° NW 00:55:08 84° NE 00:55:08 84° NE
Cosmos 783 Rocket 4.4 00:50:15 10° NNW 00:55:27 81° W 00:55:27 81° W
Cosmos 1503 Rocket 4.2 00:56:39 62° W 00:57:01 63° WNW 01:02:23 10° NNE
Cosmos 1300 Rocket 3.9 00:57:53 60° NE 00:57:53 60° NE 01:01:36 10° NNE
Cosmos 2237 Rocket 2.6 00:52:15 10° NNW 00:57:51 59° ENE 00:59:51 38° ESE
CZ-4 R/B 4.4 01:00:47 10° N 01:05:34 48° WNW 01:05:48 47° W
Spot 1 4.3 01:06:48 63° NE 01:06:48 63° NE 01:10:36 10° N
Cosmos 2151 Rocket 3.7 01:12:29 72° ENE 01:12:29 72° ENE 01:16:37 10° NNE
Meteor 1-12 Rocket 4.2 01:11:28 65° S 01:12:26 90° W 01:18:30 10° N
Timation 2 Rocket 3.8 01:14:34 61° SSW 01:15:42 84° ESE 01:21:48 10° NNE
Cosmos 1707 3.8 01:14:24 10° NNW 01:17:05 39° NW 01:17:05 39° NW
In-Cosmos 22 4.1 01:12:43 10° N 01:18:23 90° ENE 01:19:15 65° S
Cosmos 1805 4.4 01:24:26 36° E 01:24:26 36° E 01:27:56 10° NNE
SJ 16-02 3.1 01:25:10 22° ESE 01:25:49 23° E 01:29:16 10° NE
ERBS 4.1 01:23:45 10° NW 01:26:45 31° NNE 01:29:43 10° E
Meteor 2-13 Rocket 4.3 01:26:31 10° NNW 01:32:37 80° W 01:34:10 53° S
Cosmos 2227 Rocket 2.4 01:33:34 49° SSE 01:34:45 61° ESE 01:40:21 10° NNE
Cosmos 1538 Rocket 3.8 01:29:45 10° NNW 01:34:57 86° WSW 01:35:51 62° SSE
Cosmos 2195 Rocket 4.4 01:28:57 10° N 01:35:16 77° W 01:37:03 50° S
Cosmos 1025 Rocket 3.7 01:32:45 10° NNW 01:36:08 41° WNW 01:36:08 41° WNW
MOZ.5/SAFIR/RUBIN 5/SL-8 3.8 01:36:59 64° WSW 01:37:01 64° WSW 01:41:46 10° NNW
Resurs 1-4 Rocket 2.1 01:33:00 10° NNE 01:38:19 78° ESE 01:39:24 57° S
Cosmos 1674 2.9 01:36:29 10° N 01:39:47 65° NNE 01:39:47 65° NNE
Cosmos 1733 4.1 01:42:54 40° ESE 01:43:06 40° E 01:46:43 10° NNE
NOSS 0 Rocket 4.2 01:38:07 10° NW 01:44:03 47° WSW 01:44:40 46° SW
ATLAS 3B R/B 4.2 01:40:56 11° W 01:46:13 29° NNW 01:51:57 10° NNE
Cosmos 773 Rocket 4.4 01:41:42 10° NNW 01:46:17 43° W 01:46:17 43° W
Cosmos 2279 Rocket 4.1 01:44:46 38° SSE 01:47:13 68° E 01:53:23 10° NNE
Cosmos 1536 Rocket 4.2 01:44:48 10° NNW 01:48:26 42° WNW 01:48:26 42° WNW
Cosmos 2026 Rocket 3.9 01:43:17 10° NNW 01:49:19 71° W 01:51:08 46° SSW
USA 215 3.5 01:42:56 10° ENE 01:49:21 55° SE 01:51:29 40° S
COBE Rocket 4.3 01:47:33 31° SE 01:49:33 56° ENE 01:54:06 10° N
Lacrosse 4 Rocket 3.7 01:49:19 13° WNW 01:50:56 16° NW 01:53:31 10° N
Cosmos 1627 Rocket 4.5 01:45:50 10° NNW 01:51:54 64° W 01:53:39 45° SSW
Cosmos 1634 Rocket 4.0 01:50:26 46° SSW 01:52:22 72° W 01:58:37 10° N
Cosmos 2219 Rocket 3.8 01:50:02 10° NW 01:52:54 19° W 01:52:54 19° W
Cosmos 2082 4.2 01:53:29 36° SSE 01:55:21 51° ESE 02:00:46 10° NE
Cosmos 2344 4.4 01:45:43 10° NW 01:55:23 76° SW 02:08:55 10° SSE
IRAS Rocket 4.4 01:57:00 48° SW 01:58:02 55° WSW 02:03:31 10° NNW
SL-4 R/B 2.2 01:58:02 31° NW 01:59:22 53° NNE 02:02:42 10° E
Cosmos 2142 Rocket 4.5 02:00:57 41° SSW 02:03:23 80° W 02:09:49 10° N
Meteor 1-24 Rocket 3.8 02:00:11 10° N 02:05:41 70° ENE 02:08:55 24° SSE
SL-16 R/B 2.3 02:00:48 10° NNW 02:06:31 75° ENE 02:12:12 10° SSE
CBERS-1 4.2 02:02:02 10° NNE 02:07:08 64° ESE 02:09:09 36° S
Meteor 2-5 Rocket 3.6 02:03:45 10° NNW 02:09:26 84° W 02:11:58 34° S
Cosmos 1898 Rocket 4.3 02:11:41 26° SSE 02:14:10 44° ESE 02:19:07 10° NNE
ARIANE 5 R/B 3.8 02:09:42 10° NNE 02:14:32 36° E 02:18:02 17° SSE
SL-16 R/B 2.9 02:13:42 37° SW 02:15:31 46° W 02:21:32 10° NNW
NPP 3.8 02:11:11 10° N 02:16:31 62° WNW 02:18:22 39° SW
IDEFIX/ARIANE 42P 4.3 02:12:59 10° NE 02:17:18 26° E 02:21:36 10° SSE
CZ-2D R/B 2.5 02:12:11 10° N 02:17:31 53° WNW 02:19:24 36° WSW
Cosmos 1680 Rocket 3.6 02:13:01 10° NNW 02:18:17 78° ENE 02:22:57 13° SSE
NOSS 3-1 (C) 4.1 02:17:24 26° SSE 02:19:54 40° ESE 02:25:36 10° NE
USA 267 3.6 02:15:26 10° ESE 02:21:54 66° NNE 02:28:23 10° NW
AQUA 3.9 02:18:18 10° N 02:23:01 61° WNW 02:24:26 41° SW
Cosmos 1607 3.9 02:18:41 10° NW 02:25:10 84° SW 02:31:38 10° SSE
Cosmos 990 Rocket 4.3 02:23:20 30° S 02:25:48 60° ESE 02:30:55 10° NNE
ADEOS II 2.1 02:20:33 10° NNE 02:25:50 82° ESE 02:28:23 32° S
Cosmos 1766 3.5 02:26:32 46° W 02:26:58 48° WNW 02:30:45 10° N
Cosmos 2263 Rocket 4.0 02:24:00 10° SSE 02:28:22 24° ESE 02:32:43 10° NE
Meteor 1-22 Rocket 4.0 02:27:11 34° SSW 02:29:32 83° W 02:34:52 10° N
IRS-1D 3.4 02:24:37 10° NNE 02:29:40 80° WNW 02:31:54 35° SSW
Cosmos 2297 Rocket 2.7 02:27:24 30° WSW 02:29:46 47° WNW 02:35:14 10° NNE
Cosmos 2219 3.9 02:27:45 27° WSW 02:30:08 41° NW 02:35:27 10° NNE
Okean 1-7 Rocket 3.6 02:27:53 10° N 02:32:19 79° E 02:35:04 23° SSE
IRS-1C 4.3 02:30:05 10° NNE 02:35:27 72° ESE 02:38:42 24° S
TIMED 4.4 02:32:20 10° NNW 02:36:44 79° WSW 02:39:36 21° SSE
Cosmos 1626 2.2 02:34:45 10° NNW 02:38:24 53° W 02:38:57 47° SW
Meteor 1-28 Rocket 3.4 02:36:22 20° SSE 02:38:53 69° ENE 02:42:41 10° N
Okean 1 Rocket 4.1 02:38:14 27° W 02:39:03 29° WNW 02:42:53 10° NNW
Cosmos 2266 Rocket 4.0 02:32:54 10° N 02:39:19 89° W 02:45:02 13° S
Cosmos 1655 Rocket 4.0 02:33:55 10° NNW 02:40:10 68° W 02:44:28 21° S
Cosmos 2237 Rocket 3.3 02:37:07 10° NW 02:41:27 23° WSW 02:41:37 23° WSW
CZ-4B R/B 3.6 02:38:16 10° N 02:42:55 52° WNW 02:44:51 31° SW
Cosmos 1470 2.8 02:41:43 32° S 02:43:28 78° E 02:47:28 10° NNE
SL-08 R/B 3.3 02:43:56 14° SSE 02:48:12 83° WSW 02:53:12 10° NNW
Cosmos 923 Rocket 4.3 02:43:11 10° NNW 02:48:16 46° WSW 02:51:06 24° SSW
USA 229 DEB 3.9 02:48:34 22° SSW 02:52:54 62° ESE 02:59:38 10° NE
USA 229 3.9 02:48:39 22° SSW 02:52:59 61° ESE 02:59:42 10° NE
Cosmos 2098 Rocket 3.5 02:49:33 10° NNW 02:54:19 68° W 02:59:34 13° S
Cosmos 158 Rocket 4.2 02:50:53 10° NNW 02:56:05 52° WSW 03:00:32 14° S
OPS 8737 4.3 02:56:59 34° SSW 02:58:24 83° SE 03:01:27 10° NE
SL-14 R/B 4.1 02:59:21 10° NNW 03:02:51 31° W 03:03:47 27° WSW
ERBS 2.9 03:00:00 10° WNW 03:03:33 33° SSW 03:06:05 10° SSE
NOSS 3-1 (A) 3.9 03:00:07 17° S 03:04:06 51° ESE 03:10:08 10° NE
SJ 16-02 2.1 03:02:10 25° WSW 03:04:10 39° WNW 03:08:20 10° N
Cosmos 858 Rocket 4.5 03:07:27 20° SSW 03:11:14 84° WNW 03:16:33 10° NNE
Cosmos 1943 3.8 03:07:43 10° NNW 03:13:17 60° ENE 03:18:50 10° SE
Cosmos 1809 Rocket 4.4 03:07:17 10° NNW 03:13:23 78° W 03:19:29 10° S
MSX 4.4 03:07:51 10° NNE 03:13:33 57° E 03:19:12 10° S
Cosmos 1455 Rocket 3.6 03:11:32 23° SW 03:13:51 42° WNW 03:18:06 10° N
IRS-P3 4.5 03:09:03 10° N 03:14:14 51° WNW 03:17:57 19° SW
Cosmos 1626 Rocket 3.4 03:10:19 10° N 03:14:39 82° W 03:18:57 10° S
Cosmos 1758 3.5 03:13:24 22° SSW 03:15:48 55° WNW 03:19:46 10° N
Resurs 1-4 Rocket 3.9 03:14:07 10° NNW 03:17:30 17° WNW 03:20:28 11° W
Spot 4 Rocket 4.0 03:12:59 10° NNE 03:18:11 89° WNW 03:23:00 12° SSW
Meteor 1-21 Rocket 4.2 03:12:50 10° N 03:18:26 87° ENE 03:23:58 10° S
Cosmos 2227 Rocket 3.6 03:15:24 14° W 03:19:14 26° NW 03:23:57 10° N
SeaSat 1 3.3 03:17:41 10° NE 03:22:28 48° ESE 03:27:13 10° S
Landsat 5 3.5 03:20:36 10° SSE 03:24:28 75° ENE 03:28:29 10° N
CZ-2C R/B 2.9 03:22:23 10° NNE 03:26:18 75° ESE 03:30:05 10° S
Cosmos 1461 3.5 03:23:26 19° WSW 03:26:24 50° NW 03:30:53 10° NNE
CZ-2D R/B 3.4 03:23:51 10° N 03:27:54 64° WNW 03:31:10 15° SSW
FALCON 9 DEB 3.0 03:26:37 10° WNW 03:30:05 76° SW 03:33:33 10° SE
Cosmos 2227 4.3 03:24:45 12° SSW 03:30:06 81° ESE 03:35:54 10° NNE
ATLAS 3B CENTAUR R/B 4.3 03:27:04 14° SW 03:31:53 20° SSW 03:36:26 10° SSE
ATLAS CENTAUR R/B 3.9 03:29:24 10° SSE 03:31:57 16° ESE 03:34:25 10° ENE
USA 215 3.7 03:26:00 10° NE 03:32:23 58° NNW 03:38:46 10° WSW
Cosmos 1340 Rocket 3.6 03:29:56 18° SW 03:32:25 35° WNW 03:36:07 10° N
Cosmos 1758 Rocket 4.2 03:28:19 10° N 03:32:36 58° ENE 03:36:51 10° SSE
ERS-2 2.1 03:32:06 10° SSE 03:35:44 89° ENE 03:39:24 10° NNW
Cosmos 724 4.3 03:30:07 10° NW 03:36:07 72° WSW 03:42:11 10° SSE
Meteor 2-21 4.5 03:30:28 10° NNW 03:36:25 60° W 03:42:21 10° S
Cosmos 2228 4.3 03:32:40 10° SSE 03:36:46 41° E 03:40:54 10° NNE
Cosmos 1953 2.4 03:35:03 12° SSW 03:38:43 60° W 03:42:45 10° N
SL-4 R/B 2.3 03:35:44 10° WNW 03:38:47 31° SW 03:41:50 10° SSE
Cosmos 1726 2.5 03:38:38 13° SSW 03:41:40 46° WNW 03:45:14 10° N
Cosmos 1908 3.5 03:39:59 10° S 03:43:52 72° E 03:47:47 10° NNE
Meteor 1-16 Rocket 4.1 03:39:36 10° S 03:44:58 89° WNW 03:50:30 10° N
Cosmos 2285 Rocket 4.4 03:40:26 10° S 03:46:41 68° ESE 03:52:56 10° NNE
SL-16 R/B 3.6 03:46:16 10° WNW 03:49:59 18° W 03:53:40 10° SW
H-2A R/B 2.1 03:46:08 10° S 03:50:09 51° W 03:54:10 10° NNW
Cosmos 2150 Rocket 4.3 03:46:22 10° S 03:51:29 71° ESE 03:56:41 10° NNE
Cosmos 1937 Rocket 4.2 03:47:07 12° SW 03:51:46 40° WNW 03:56:48 10° N
ARIANE 5 R/B 3.5 03:48:55 10° N 03:53:33 33° WNW 03:58:11 10° SW
Cosmos 1825 Rocket 3.7 03:50:51 10° N 03:55:13 81° E 03:59:32 10° S
IDEFIX/ARIANE 42P 3.0 03:52:08 10° N 03:57:04 45° WNW 04:02:00 10° SW
CZ-4C R/B 3.5 03:56:37 10° SSW 03:59:33 33° W 04:02:34 10° NNW
Cosmos 1328 3.7 03:55:37 10° NNW 03:59:38 79° W 04:03:36 10° S
Cosmos 1953 Rocket 4.2 03:56:47 10° N 04:01:15 63° E 04:05:41 10° SSE
NOSS 2-3 (E) 3.9 03:58:02 10° SW 04:02:18 64° NW 04:07:23 10° NE
CZ-4B R/B 2.0 03:59:19 10° SSE 04:02:34 60° ENE 04:05:47 10° N
ADEOS II 3.9 04:01:39 10° NNW 04:04:52 17° WNW 04:08:05 10° W
USA 267 3.5 03:58:53 10° SSE 04:05:06 45° SW 04:11:20 10° WNW
Cosmos 1703 3.5 04:06:32 10° NNW 04:10:24 49° W 04:14:13 10° S
NOSS 3-1 (C) 4.1 04:05:18 10° WSW 04:10:39 44° NW 04:16:55 10° NNE
Cosmos 2263 Rocket 2.4 04:06:24 10° SW 04:11:52 56° WNW 04:17:22 10° NNE
Cosmos 1386 Rocket 4.5 04:06:53 10° N 04:12:58 88° W 04:18:58 10° S
